Date,TemperatureHighF,TemperatureAvgF,TemperatureLowF,DewpointHighF,DewpointAvgF,DewpointLowF,HumidityHigh,HumidityAvg,HumidityLow,PressureMaxIn,PressureMinIn,WindSpeedMaxMPH,WindSpeedAvgMPH,GustSpeedMaxMPH,PrecipitationSumIn
2013-1-1,45.9,42.2,37.6,42.6,31.7,14.9,96,70,36,30.24,30.09,5,2,7,0.50
2013-1-2,44.2,40.4,37.3,42.0,32.4,26.4,94,74,51,30.25,30.02,5,2,11,0.04
2013-1-3,41.2,35.4,27.9,36.0,28.9,19.1,97,77,46,30.44,30.17,5,2,8,0.00
2013-1-4,42.4,31.6,26.6,19.4,11.7,6.4,66,42,23,30.52,30.36,7,4,15,0.00
2013-1-5,50.1,35.1,23.6,22.9,14.0,10.4,60,42,21,30.52,30.34,8,2,11,0.00
2013-1-6,49.4,39.0,34.4,31.7,24.4,19.7,78,56,40,30.34,30.17,8,3,20,0.00
2013-1-7,48.9,35.3,27.3,21.7,18.0,14.2,69,50,27,30.58,30.30,7,2,13,0.00
2013-1-8,52.3,36.9,25.5,33.9,25.7,17.3,79,64,42,30.58,30.46,5,1,10,0.00
2013-1-9,60.0,49.6,40.3,58.0,46.1,33.7,98,88,77,30.60,29.92,10,1,18,3.29
2013-1-10,60.7,52.1,45.9,53.1,45.4,37.1,100,80,54,30.63,30.49,6,2,9,0.00
2013-1-11,57.0,48.8,43.3,57.0,47.8,39.6,100,97,75,30.50,30.26,4,1,7,0.25
2013-1-12,68.8,59.7,53.9,60.7,55.4,50.4,100,87,51,30.30,30.22,5,1,8,0.00
2013-1-13,66.4,60.5,56.8,53.5,49.2,44.9,80,67,46,30.24,30.16,9,4,23,0.04
2013-1-14,60.1,57.3,46.0,58.3,54.7,43.3,94,91,82,30.29,30.16,7,2,13,0.87
2013-1-15,50.5,46.5,41.5,50.2,45.8,41.0,99,97,93,30.29,30.15,4,1,6,0.83
2013-1-16,57.7,50.0,43.0,54.8,49.0,42.7,100,96,81,30.17,30.06,3,1,6,0.29
2013-1-17,51.3,43.2,31.8,50.7,41.8,27.7,100,95,82,30.31,29.91,7,2,12,1.74
2013-1-18,43.7,32.5,26.1,27.5,21.8,18.4,84,65,40,30.62,30.31,7,2,12,0.04
2013-1-19,52.2,35.4,24.4,27.9,20.2,14.4,82,58,21,30.57,30.24,6,1,10,0.00
2013-1-20,55.5,42.0,31.8,25.3,18.7,10.5,58,40,26,30.24,30.16,7,3,13,0.00
2013-1-21,51.6,36.6,27.2,24.1,15.7,4.8,69,44,26,30.18,30.05,8,3,18,0.00
2013-1-22,31.1,24.0,17.4,6.2,-1.3,-5.8,43,29,20,30.39,30.06,8,4,22,0.00
2013-1-23,41.2,30.2,22.3,16.3,7.8,-3.7,51,36,27,30.44,30.16,6,2,13,0.00
2013-1-24,39.7,32.5,19.9,21.8,8.6,-1.5,54,36,22,30.49,30.05,10,4,25,0.00
2013-1-25,36.9,25.5,17.6,34.5,13.8,-2.5,93,60,34,30.53,30.13,5,2,10,0.00
2013-1-26,46.6,35.5,28.4,33.4,17.2,8.6,88,50,22,30.47,30.20,6,3,15,0.04
2013-1-27,40.7,31.6,23.9,24.5,17.8,14.2,76,56,39,30.64,30.46,4,1,8,0.04
2013-1-28,61.5,44.4,31.8,43.2,34.9,25.0,90,71,38,30.56,30.35,8,2,14,0.00
2013-1-29,69.3,54.0,41.2,55.0,43.3,-99.9,93,71,35,30.37,30.13,8,3,16,0.00
2013-1-30,60.3,42.0,42.7,57.5,13.6,-99.9,97,64,73,30.13,29.58,11,4,25,3.04
2013-1-31,42.4,33.0,27.0,35.0,15.5,7.9,77,48,30,30.16,29.64,9,4,24,0.03
2013-2-1,37.9,26.0,19.6,22.1,6.2,-1.1,63,40,26,30.48,29.99,8,4,23,0.00
2013-2-2,41.0,29.1,19.0,28.6,11.9,-99.9,87,50,26,30.48,30.13,5,1,9,0.00
2013-2-3,44.5,33.1,26.1,27.6,18.9,12.5,83,55,32,30.15,29.99,9,3,22,0.00
2013-2-4,49.9,35.0,24.9,16.9,13.5,-99.9,54,41,26,30.25,30.08,8,3,15,0.00
2013-2-5,38.7,32.1,29.5,18.7,17.0,14.8,56,52,44,30.12,30.02,4,2,6,0.00
2013-2-10,46.4,44.0,38.0,46.1,43.3,34.5,100,98,88,30.34,30.29,8,5,15,0.75
2013-2-11,55.4,49.8,45.2,51.1,40.7,-99.9,100,76,24,30.29,30.09,8,2,22,0.09
2013-2-12,52.2,43.3,36.9,31.4,18.3,10.9,78,38,22,30.24,30.06,7,3,15,0.12
2013-2-13,46.3,37.9,32.8,43.1,32.2,-99.9,96,81,62,30.06,29.77,7,2,16,0.29
2013-2-14,52.3,38.5,27.7,25.0,20.6,17.2,72,50,26,30.20,30.02,6,2,12,0.00
2013-2-15,58.4,39.7,29.2,28.0,22.4,-99.9,76,54,25,30.23,30.07,6,2,10,0.00
2013-2-16,39.5,29.9,20.7,22.4,13.7,4.8,68,49,32,30.13,29.95,8,3,19,0.00
2013-2-17,35.1,23.8,16.9,7.1,3.6,0.9,48,38,27,30.38,30.09,9,4,24,0.00
2013-2-18,52.1,35.0,20.5,19.5,12.1,5.1,53,38,24,30.47,30.27,7,2,15,0.00
2013-2-19,54.2,40.0,31.5,36.4,19.0,5.6,83,45,26,30.26,29.93,9,3,20,0.04
2013-2-20,47.7,34.7,26.6,9.8,4.0,-1.3,40,26,19,30.21,30.08,9,4,20,0.00
2013-2-21,62.9,39.5,23.5,28.9,9.9,-99.9,75,31,16,30.29,30.13,7,2,11,0.25
2013-2-22,38.1,35.0,32.0,35.1,31.4,25.7,98,87,68,30.32,30.16,5,1,10,0.37
2013-2-23,52.7,44.6,35.1,46.6,42.3,33.9,100,92,75,30.19,29.89,4,1,6,0.30
2013-2-24,57.7,43.1,32.2,38.7,23.0,13.9,89,49,20,30.16,29.92,6,2,13,0.00
2013-2-25,41.7,35.1,29.5,25.0,17.2,13.9,82,48,38,30.23,30.06,7,3,13,0.00
2013-2-26,29.5,28.7,27.8,26.9,26.1,25.0,92,89,83,30.10,29.96,8,6,12,0.03
2013-2-27,48.7,39.5,35.2,27.5,24.5,21.4,71,56,34,29.92,29.81,5,2,11,0.00
2013-2-28,41.2,33.4,29.1,27.1,18.8,-99.9,72,55,40,30.05,29.80,8,3,18,0.00
2013-3-1,41.1,32.1,28.6,24.1,21.4,18.1,77,63,44,30.08,29.97,7,3,12,0.00
2013-3-2,43.4,31.9,24.7,25.4,19.8,12.2,80,60,36,30.08,29.96,7,3,15,0.00
2013-3-3,35.8,26.0,20.3,13.2,9.7,6.9,61,47,32,30.15,30.02,8,4,25,0.00
2013-3-4,53.3,34.2,20.5,15.8,9.4,6.3,54,37,18,30.26,30.09,7,2,14,0.00
2013-3-5,49.2,39.2,32.5,46.7,25.8,16.1,99,59,45,30.18,29.77,6,1,15,0.79
2013-3-6,32.4,26.9,23.4,22.7,18.5,13.9,81,68,54,30.29,29.76,12,5,25,0.00
2013-3-7,47.2,31.6,23.9,24.0,20.2,17.7,81,63,38,30.36,30.26,9,5,15,0.04
2013-3-8,54.7,35.1,22.6,20.5,17.6,15.2,79,51,26,30.41,30.29,7,3,15,0.00
2013-3-9,61.2,42.7,26.4,22.8,17.9,13.0,57,38,21,30.42,30.33,5,1,9,0.00
2013-3-10,64.9,48.6,35.4,27.1,23.2,18.6,52,38,24,30.37,30.25,6,1,10,0.00
2013-3-11,52.7,48.5,43.2,50.4,42.3,25.5,98,80,48,30.27,29.90,9,2,19,0.79
2013-3-12,54.5,46.4,36.8,50.7,33.3,20.4,97,65,30,30.12,29.83,7,3,16,0.37
2013-3-13,48.9,37.1,26.9,24.1,16.6,9.8,58,43,27,30.26,30.07,9,3,17,0.00
2013-3-14,48.1,32.7,21.9,14.1,8.8,2.5,53,37,19,30.36,30.22,9,3,17,0.00
2013-3-15,68.1,47.3,29.5,32.8,22.3,9.1,63,39,21,30.29,30.01,6,2,11,0.00
2013-3-16,76.8,60.6,45.0,37.7,33.8,29.6,61,39,21,30.03,29.84,6,3,15,0.00
2013-3-17,72.1,57.0,42.5,42.3,37.8,34.4,86,51,28,30.15,29.97,7,2,11,0.00
2013-3-18,42.8,37.9,33.6,42.2,36.9,33.6,100,96,86,30.17,29.95,4,2,8,0.37
2013-3-19,57.7,44.6,35.5,42.8,24.8,7.7,100,53,25,30.18,29.94,8,3,20,0.00
2013-3-20,57.2,40.3,30.4,22.8,8.7,4.5,67,28,17,30.19,29.91,7,2,12,0.00
2013-3-21,38.8,28.3,19.3,19.1,7.9,3.3,59,40,26,30.03,29.82,9,4,22,0.00
2013-3-22,50.6,35.2,21.7,15.4,9.7,5.6,47,34,19,30.14,30.02,6,2,12,0.00
2013-3-23,62.6,43.2,33.3,38.3,27.2,13.6,87,54,37,30.09,29.94,4,1,7,0.05
2013-3-24,41.4,37.9,34.0,38.1,35.9,33.1,99,93,79,29.99,29.62,8,3,14,0.57
2013-3-25,40.6,32.5,27.3,33.8,19.1,12.2,98,58,35,29.95,29.59,8,4,21,0.09
2013-3-26,40.8,30.3,25.3,22.0,17.6,-99.9,74,58,41,30.27,29.94,8,4,16,0.00
2013-3-27,48.7,34.3,26.5,19.9,17.0,14.0,70,49,28,30.36,30.23,8,3,18,0.00
2013-3-28,54.0,37.8,26.8,19.7,15.3,11.8,57,40,23,30.39,30.27,8,3,13,0.00
2013-3-29,61.0,41.3,28.6,32.6,21.0,14.2,79,47,19,30.41,30.28,6,2,11,0.00
2013-3-30,63.3,48.1,39.0,42.3,34.7,31.0,88,63,33,30.30,30.14,8,1,10,0.25
2013-3-31,65.0,51.5,44.8,51.3,43.4,34.1,97,77,38,30.14,29.92,5,1,10,0.29
2013-4-1,64.6,51.3,37.1,49.0,34.5,24.1,94,56,30,30.07,29.93,8,3,16,0.00
2013-4-2,61.5,46.1,34.5,24.0,17.9,10.7,54,35,18,30.25,30.06,7,3,17,0.00
2013-4-3,49.2,40.5,32.3,18.2,14.0,12.1,46,34,27,30.33,30.21,4,2,8,0.00
2013-4-7,70.8,61.4,49.7,58.0,36.0,33.7,98,40,28,29.92,27.14,10,3,18,0.00
2013-4-8,75.7,59.8,43.8,46.5,39.9,34.0,76,50,31,27.20,27.14,8,2,13,0.00
2013-4-9,83.1,65.2,48.7,51.6,44.9,41.3,82,51,29,27.26,27.17,6,2,11,0.00
2013-4-10,86.2,66.2,51.9,53.1,46.7,44.0,81,52,24,27.20,27.08,7,2,12,0.04
2013-4-11,78.6,66.4,57.2,60.1,49.4,43.5,89,57,31,27.08,26.84,8,3,15,0.71
2013-4-12,75.0,62.2,50.0,60.1,46.1,29.2,97,61,25,26.96,26.75,9,3,20,2.08
2013-4-13,72.8,57.2,47.0,33.2,28.7,24.7,52,36,19,27.11,26.93,8,3,19,0.00
2013-4-14,70.3,56.0,42.8,43.6,32.6,27.5,71,44,24,27.14,27.05,6,2,11,0.00
2013-4-15,64.4,54.2,49.6,52.6,49.6,41.9,97,85,58,27.26,27.02,6,2,11,0.12
2013-4-16,79.0,63.5,53.2,56.0,51.0,47.4,97,68,35,27.34,27.26,6,1,11,0.00
2013-4-17,72.0,62.0,54.9,62.2,53.6,50.0,92,75,53,27.32,27.23,4,1,6,0.21
2013-4-18,68.5,57.3,54.7,57.7,47.2,-99.9,96,77,52,27.23,27.17,8,-27,11,0.00
2013-4-19,65.4,56.4,41.2,58.8,47.6,-99.9,92,75,58,26.99,40.00,11,-2,26,0.54
2013-4-20,63.3,47.2,34.6,28.5,23.2,-99.9,63,41,23,27.29,26.99,9,3,22,0.00
2013-4-21,64.2,47.5,34.0,30.1,25.3,19.9,67,44,25,27.43,27.29,6,2,12,0.00
2013-4-22,65.0,49.1,38.8,32.4,29.5,25.8,73,49,26,27.40,27.23,6,2,10,0.00
2013-4-23,73.8,53.9,35.1,37.6,31.7,23.2,69,45,24,27.29,27.14,7,2,12,0.00
2013-4-24,71.0,58.7,45.4,52.1,43.9,37.8,82,60,36,27.17,27.08,9,2,19,0.00
2013-4-25,72.9,55.2,39.4,58.0,29.1,14.1,98,43,16,29.92,27.14,10,3,18,3.29
2013-4-26,71.6,54.8,38.5,34.8,27.0,20.2,53,36,23,27.43,27.32,6,2,10,0.00
2013-4-27,57.9,51.8,49.1,48.1,41.9,33.8,92,70,49,27.40,27.29,4,0,6,0.75
2013-4-28,49.8,48.4,46.2,49.8,46.3,39.1,100,93,73,27.29,27.08,4,1,9,1.78
2013-4-29,75.6,59.6,49.3,54.8,49.8,43.1,100,74,32,27.11,27.02,6,1,10,0.08
2013-4-30,76.8,61.2,50.5,54.7,50.1,45.6,96,70,37,27.23,27.05,6,1,10,0.00
2013-5-1,61.6,55.9,52.1,51.2,48.4,44.1,88,77,54,27.32,27.23,6,3,12,0.00
2013-5-2,55.4,51.9,49.5,54.1,50.9,48.2,100,97,86,27.32,27.26,4,2,10,0.25
2013-5-3,54.1,51.2,47.7,51.6,48.1,44.3,100,89,73,27.29,27.14,6,2,13,0.25
2013-5-4,51.6,45.3,41.9,46.8,42.7,35.2,100,91,70,27.17,27.02,8,3,14,0.66
2013-5-5,48.7,38.1,41.0,48.7,24.9,-99.9,100,87,100,27.05,26.90,6,3,17,5.85
2013-5-6,69.4,53.9,44.2,54.1,44.2,-99.9,100,75,34,26.96,26.87,6,2,11,0.33
2013-5-7,67.7,50.0,40.5,48.8,41.5,-99.9,94,77,40,27.02,26.93,4,1,6,0.38
2013-5-8,69.9,56.0,48.9,54.4,48.9,44.4,98,79,43,27.14,26.99,5,1,12,0.04
2013-5-9,81.1,63.7,48.6,56.4,48.1,43.3,97,63,30,27.20,27.08,5,1,12,0.00
2013-5-10,79.6,59.2,52.2,56.3,33.6,-99.9,90,52,32,27.20,27.08,6,2,14,0.00
2013-5-11,75.3,44.7,55.6,56.4,6.7,-99.9,91,48,42,27.08,26.93,4,1,9,0.24
2013-5-12,66.7,29.2,46.8,50.6,-23.6,-99.9,83,33,24,27.11,26.96,6,2,14,0.00
2013-5-13,67.6,52.3,39.4,31.4,25.2,-99.9,59,37,20,27.23,27.11,5,2,15,0.00
2013-5-14,78.4,57.3,37.4,43.0,33.2,-99.9,70,44,22,27.26,27.17,4,2,10,0.00
2013-5-15,90.6,69.9,53.3,50.2,44.7,-99.9,74,46,20,27.20,27.11,5,-8,15,0.00
2013-5-18,64.0,62.3,60.4,60.5,59.2,57.7,94,90,81,27.20,27.14,2,0,4,0.91
2013-5-19,77.0,65.1,60.1,65.1,59.7,56.0,99,84,56,27.20,27.14,5,0,8,0.17
2013-5-20,82.5,67.9,59.1,65.8,59.8,56.6,97,77,46,27.23,27.14,3,0,5,0.00
2013-5-21,86.8,70.9,59.4,68.7,59.3,54.4,98,71,33,27.17,27.08,4,1,6,0.00
2013-5-22,81.5,66.8,60.1,66.9,59.9,54.0,96,80,47,27.14,27.02,4,0,8,0.75
2013-5-23,82.1,67.8,59.2,64.3,55.0,46.9,98,68,33,27.11,26.99,5,1,13,0.00
2013-5-24,72.2,60.6,49.4,48.2,40.9,31.9,76,51,26,27.29,26.99,7,2,21,0.00
2013-5-25,80.2,60.1,43.9,38.2,33.4,29.5,61,39,20,27.34,27.26,4,2,12,0.00
2013-5-26,77.8,61.9,53.2,45.0,40.6,35.5,68,47,25,27.32,27.23,5,1,9,0.00
2013-5-27,82.9,65.7,50.4,55.4,47.8,43.8,81,56,32,27.32,27.23,5,1,7,0.00
2013-5-28,84.3,69.4,57.2,57.3,53.1,49.4,84,59,32,27.32,27.23,5,1,9,0.00
2013-5-29,84.6,69.7,57.7,60.9,54.7,51.9,86,61,37,27.32,27.26,4,1,8,0.00
2013-5-30,84.3,68.6,57.7,63.1,55.0,51.7,91,65,38,27.37,27.29,4,1,6,0.00
2013-5-31,84.6,70.4,60.6,62.0,54.6,49.5,88,61,33,27.32,27.23,4,1,7,0.00
2013-6-1,85.6,72.7,62.2,60.9,55.8,51.6,82,58,34,27.26,27.14,5,1,8,0.00
2013-6-2,74.1,65.0,61.9,67.9,62.2,58.0,100,91,72,27.17,27.02,3,0,6,0.00
2013-6-3,83.0,65.5,61.9,68.2,48.2,-99.9,100,67,34,27.11,26.99,4,1,10,0.00
2013-6-4,80.5,68.4,58.3,62.0,57.1,54.4,92,69,44,27.20,27.08,3,0,6,0.00
2013-6-5,76.9,55.7,62.8,63.7,33.1,-99.9,96,66,58,27.20,27.11,2,0,8,0.00
2013-6-6,63.7,16.1,62.7,62.7,-58.7,-99.9,98,25,94,27.11,26.93,3,0,5,0.00
2013-6-7,-200.0,0.0,200.0,-99.9,-99.9,-99.9,0,0,100,26.96,26.84,3,0,8,0.74
2013-6-8,-200.0,0.0,200.0,-99.9,-99.9,-99.9,0,0,100,27.20,26.96,4,1,7,0.09
2013-6-9,-200.0,0.0,200.0,-99.9,-99.9,-99.9,0,0,100,27.26,27.17,4,1,8,0.87
2013-6-10,-200.0,0.0,200.0,-99.9,-99.9,-99.9,0,0,100,27.17,27.02,6,2,12,1.16
2013-6-11,-200.0,0.0,200.0,-99.9,-99.9,-99.9,0,0,100,27.14,27.05,4,1,10,0.12
2013-6-12,88.2,25.5,68.0,62.6,-44.3,-99.9,82,23,40,27.17,27.11,4,-429,6,0.00
2013-6-13,92.2,72.9,65.0,63.3,57.8,-99.9,88,64,28,27.11,26.90,0,-999,0,0.00
2013-6-14,83.0,67.9,55.8,60.0,50.0,41.9,98,57,27,29.92,26.96,10,-988,18,3.29
2013-6-15,81.1,66.5,53.6,57.5,51.7,47.3,86,62,34,27.23,27.14,0,-999,0,0.00
2013-6-16,83.8,70.5,59.4,59.5,56.7,53.8,89,64,36,27.23,27.17,3,-543,7,0.00
2013-6-17,80.6,71.0,65.6,66.2,62.2,58.6,91,75,52,27.17,27.08,3,0,6,0.04
2013-6-18,77.4,68.3,62.5,67.8,63.5,58.7,92,85,62,27.11,26.96,4,1,13,0.04
2013-6-19,77.2,67.8,58.6,63.7,58.3,54.7,93,73,48,27.23,27.05,3,0,5,0.00
2013-6-20,80.1,68.8,62.3,62.9,59.0,55.6,89,72,47,27.34,27.23,3,0,6,0.00
2013-6-21,81.0,68.3,59.8,61.9,57.1,52.2,91,70,40,27.34,27.29,2,0,6,0.00
2013-6-22,83.3,69.6,59.5,58.6,54.4,47.5,88,62,33,27.32,27.26,3,0,5,0.00
2013-6-23,80.5,67.8,60.7,64.9,60.6,55.1,89,78,53,27.34,27.26,3,0,6,0.17
2013-6-24,83.9,71.9,62.3,67.6,61.9,57.1,96,73,41,27.34,27.23,4,0,7,0.08
2013-6-25,85.8,71.8,63.8,65.6,62.5,58.3,90,74,41,27.29,27.17,3,0,5,0.00
2013-6-26,85.2,72.0,63.9,67.4,63.4,60.2,93,76,45,27.17,27.08,4,1,8,0.08
2013-6-27,84.9,71.3,66.7,66.7,54.0,-99.9,91,65,50,27.11,26.96,3,-64,8,0.13
2013-6-28,86.5,74.6,65.6,65.0,57.8,-99.9,83,60,39,26.99,26.84,5,-14,10,0.08
2013-6-29,82.6,70.7,61.6,64.0,57.7,52.6,92,67,38,26.87,26.81,2,0,6,0.00
2013-6-30,81.9,68.8,61.2,63.6,58.2,51.5,90,71,38,26.96,26.84,3,0,6,1.25
2013-7-1,79.6,69.4,64.3,65.2,62.3,59.3,93,79,53,27.08,26.96,4,0,9,1.54
2013-7-2,79.0,69.3,64.1,66.0,62.7,60.0,94,80,56,27.26,27.08,4,1,9,0.04
2013-7-3,73.9,67.2,61.5,66.6,62.9,58.0,92,86,72,27.32,27.23,4,1,9,2.57
2013-7-4,73.3,65.8,61.8,68.3,63.3,59.7,97,92,77,27.32,27.26,5,1,11,0.70
2013-7-5,80.1,69.6,65.4,66.0,62.9,57.2,94,81,49,27.34,27.26,5,1,17,0.13
2013-7-6,80.0,70.1,65.8,65.7,64.0,60.0,93,82,53,27.32,27.23,4,1,8,1.16
2013-7-7,81.1,71.7,67.0,67.0,64.7,61.9,94,80,55,27.29,27.23,3,1,8,0.12
2013-7-8,85.6,73.0,66.1,66.4,63.6,56.8,93,75,39,27.32,27.26,4,1,6,0.75
2013-7-9,85.2,72.6,66.5,69.4,65.1,61.4,96,79,51,27.32,27.23,2,-454,5,0.00
2013-7-10,83.1,70.1,63.8,70.9,65.2,61.5,97,85,61,27.29,27.11,0,-999,0,1.62
2013-7-11,76.0,69.6,64.9,68.9,65.2,62.8,97,87,68,27.11,27.05,0,-999,0,0.04
2013-7-12,80.7,69.9,64.2,68.5,63.2,56.9,93,80,57,27.14,27.02,0,-999,0,0.00
2013-7-13,70.6,66.1,63.2,65.4,62.0,56.8,93,87,77,27.23,27.11,0,-999,0,0.00
2013-7-14,71.5,67.8,66.1,68.4,65.3,61.2,96,92,81,27.37,27.20,0,-999,0,2.49
2013-7-15,79.8,70.4,66.4,68.3,64.8,61.5,97,84,57,27.43,27.37,0,-999,0,0.00
2013-7-16,87.2,73.8,64.3,69.7,62.4,54.1,94,71,35,27.43,27.37,0,-999,0,0.00
2013-7-17,88.7,72.4,66.4,68.9,64.2,58.9,90,77,42,27.40,27.32,0,-999,0,0.17
2013-7-18,85.7,73.8,65.8,70.9,65.5,62.0,93,77,48,27.32,27.23,0,-999,0,0.00
2013-7-19,87.8,74.9,66.3,68.7,64.1,60.4,92,71,41,27.29,27.17,0,-999,0,0.00
2013-7-20,83.5,72.4,67.6,67.7,65.4,61.3,89,79,54,27.20,27.11,0,-999,0,0.08
2013-7-21,85.5,71.5,66.5,68.7,64.7,60.3,93,80,49,27.17,27.08,0,-999,0,0.04
2013-7-22,83.8,72.0,64.9,68.1,63.6,60.3,93,76,44,27.14,26.99,0,-999,0,0.21
2013-7-23,83.0,71.9,65.4,64.9,62.4,58.5,90,74,45,27.05,26.96,0,-999,0,0.00
2013-7-24,85.3,73.5,66.7,65.0,61.0,54.7,87,67,39,27.02,26.93,0,-999,0,0.17
2013-7-25,83.4,71.6,63.2,64.1,60.6,55.4,90,71,39,27.08,26.99,0,-999,0,0.00
2013-7-27,78.5,70.3,66.1,67.9,63.4,60.8,92,79,57,27.17,27.05,0,-999,0,1.74
2013-7-28,82.8,70.6,62.9,64.7,60.6,57.3,91,72,44,27.14,27.05,0,-999,0,0.00
2013-7-29,82.5,68.8,59.6,61.0,54.9,47.2,88,64,30,27.29,27.14,0,-999,0,0.00
2013-7-30,77.8,68.2,59.8,62.7,57.4,51.2,83,69,54,27.32,27.26,0,-999,0,0.00
2013-7-31,72.4,67.7,63.7,64.8,63.0,60.4,91,85,72,27.29,27.11,0,-999,0,0.34
2013-8-1,81.1,71.6,65.6,65.9,62.7,58.0,92,75,50,27.11,27.05,0,-999,0,0.00
2013-8-2,82.6,70.5,62.0,64.8,61.4,58.5,91,75,47,27.20,27.05,0,-999,0,0.03
2013-8-3,82.6,71.7,65.0,66.6,60.8,55.5,92,71,41,27.17,27.11,0,-999,0,0.00
2013-8-4,81.7,71.2,64.5,64.0,58.8,53.5,89,67,41,27.17,27.11,0,-999,0,0.00
2013-8-5,79.3,68.4,60.2,61.1,57.5,-99.9,84,70,51,27.20,27.11,0,-999,0,0.30
2013-8-6,78.8,57.7,64.9,67.3,32.5,-99.9,93,63,61,27.17,27.08,0,-999,0,0.04
2013-8-7,71.7,68.8,67.4,67.6,65.6,63.9,93,89,82,27.20,27.14,0,-999,0,0.70
2013-8-8,79.3,70.4,65.9,70.3,66.3,63.0,97,87,66,27.20,27.14,0,-999,0,0.54
2013-8-9,84.4,72.8,67.0,70.1,66.7,62.7,96,82,51,27.23,27.14,0,-999,0,0.17
2013-8-10,81.8,71.7,67.4,69.9,66.9,63.0,96,85,61,27.26,27.20,0,-999,0,0.08
2013-8-11,84.7,72.2,65.4,69.2,65.4,63.0,94,80,52,27.29,27.20,0,-999,0,0.21
2013-8-12,85.3,71.8,66.5,68.2,65.3,62.5,94,81,47,27.23,27.14,0,-999,0,0.37
2013-8-13,79.2,71.0,66.7,69.4,64.6,59.8,94,81,57,27.14,27.02,0,-999,0,0.00
2013-8-14,78.4,68.3,62.9,63.1,58.3,53.3,88,72,42,27.17,27.02,0,-999,0,0.00
2013-8-15,66.8,61.5,57.8,55.6,52.0,49.5,82,71,57,27.23,27.14,0,-999,0,0.00
2013-8-16,72.6,61.9,55.4,54.4,52.1,48.6,90,72,45,27.26,27.17,0,-999,0,0.00
2013-8-17,66.5,61.0,58.2,58.8,53.8,49.9,93,78,61,27.26,27.20,0,-999,0,0.17
2013-8-18,77.1,66.0,60.2,65.1,61.0,58.3,94,85,59,27.32,27.20,0,-999,0,0.13
2013-8-19,72.1,66.4,63.1,64.1,62.3,60.4,96,87,71,27.32,27.20,0,-999,0,1.28
2013-8-20,75.8,67.3,60.7,65.3,62.1,59.0,97,84,63,27.32,27.23,0,-999,0,0.00
2013-8-21,72.6,67.3,63.4,67.4,62.6,-99.9,96,86,71,27.34,27.26,0,-999,0,0.04
2013-8-22,83.0,70.9,63.1,68.0,62.7,58.4,97,78,43,27.29,27.17,0,-999,0,0.04
2013-8-23,82.7,70.5,63.4,67.0,62.4,59.0,96,77,47,27.23,27.14,0,-999,0,0.00
2013-8-24,76.5,66.9,58.6,62.7,55.7,49.0,91,70,40,27.37,27.20,0,-999,0,0.00
2013-8-25,76.0,63.3,54.2,58.3,52.4,49.1,91,70,40,27.43,27.37,0,-999,0,0.00
2013-8-26,79.3,65.2,55.3,60.4,55.7,51.4,92,73,44,27.40,27.26,0,-999,0,0.00
2013-8-27,79.7,67.9,59.5,64.9,60.5,56.0,94,78,53,27.26,27.17,0,-999,0,0.00
2013-8-28,83.0,72.2,64.5,66.9,63.1,60.2,93,75,47,27.20,27.11,0,-999,0,0.00
2013-8-29,85.4,75.1,70.3,66.7,64.1,61.5,81,69,46,27.17,27.08,0,-999,0,0.00
2013-8-30,77.6,71.2,68.3,66.3,64.5,62.4,88,80,64,27.20,27.11,0,-999,0,0.00
2013-8-31,81.9,71.5,66.8,67.5,64.9,62.9,93,81,57,27.14,27.05,0,-999,0,0.00
2013-9-1,85.0,71.0,65.0,68.7,64.6,59.4,94,82,49,27.08,27.02,0,-999,0,0.46
2013-9-2,80.4,70.5,64.1,66.2,63.7,61.3,96,80,53,27.08,26.99,0,-999,0,0.00
2013-9-3,80.9,69.5,63.2,64.4,59.8,54.6,91,73,43,27.14,27.02,0,-999,0,0.12
2013-9-4,81.4,68.5,60.2,63.3,58.9,54.6,91,74,40,27.23,27.11,0,-999,0,0.00
2013-9-5,80.0,68.1,61.1,62.6,58.9,54.9,91,74,45,27.26,27.20,0,-999,0,0.00
2013-9-6,76.2,64.9,56.4,59.4,55.1,51.5,89,72,45,27.29,27.20,0,-999,0,0.00
2013-9-7,78.3,66.1,57.5,61.4,56.2,53.3,92,73,42,27.23,27.14,0,-999,0,0.00
2013-9-8,76.7,68.0,61.6,64.4,60.6,56.0,91,78,56,27.17,27.11,0,-999,0,0.00
2013-9-9,79.9,69.7,62.3,65.8,60.9,57.1,92,75,47,27.29,27.17,0,-999,0,0.00
2013-9-10,81.8,69.4,61.4,65.0,59.8,57.3,92,74,47,27.37,27.26,0,-999,0,0.00
2013-9-11,79.3,68.9,62.9,69.2,63.2,59.3,91,82,60,27.34,27.23,0,-999,0,0.34
2013-9-12,80.9,69.7,64.9,66.2,63.2,58.8,93,81,52,27.23,27.02,0,-999,0,0.08
2013-9-13,74.2,65.6,55.7,60.4,53.0,45.4,86,66,39,27.02,26.96,0,-999,0,0.04
2013-9-14,72.1,58.2,49.2,50.0,46.4,42.7,87,67,41,27.20,26.99,0,-999,0,0.00
2013-9-15,72.8,61.1,52.1,56.7,52.2,47.5,90,74,47,27.29,27.20,0,-999,0,0.00
2013-9-16,77.1,65.1,56.9,61.3,55.4,47.9,94,74,37,27.29,27.20,0,-999,0,0.00
2013-9-17,67.4,61.5,58.0,57.7,49.5,45.1,79,65,49,27.37,27.26,0,-999,0,0.00
2013-9-18,65.1,59.6,55.0,56.2,51.4,47.4,88,74,61,27.32,27.23,0,-999,0,0.00
2013-9-19,75.5,65.0,58.9,60.8,58.1,55.7,91,80,54,27.26,27.20,0,-999,0,0.00
2013-9-20,80.6,67.4,60.2,64.3,59.4,56.4,96,78,44,27.20,27.08,0,-999,0,0.00
2013-9-21,65.8,62.7,57.9,61.4,59.1,55.7,93,88,80,27.08,26.84,0,-999,0,1.33
2013-9-22,71.2,60.4,53.6,57.3,52.7,48.7,96,78,46,27.05,26.87,0,-999,0,0.00
2013-9-23,69.3,59.8,54.1,55.5,52.3,49.2,90,78,55,27.17,27.02,0,-999,0,0.00
2013-9-24,72.5,61.3,52.4,56.8,53.7,48.5,92,77,53,27.17,27.05,0,-999,0,0.00
2013-9-25,60.7,59.0,57.5,58.1,56.4,54.6,94,91,86,27.05,26.96,0,-999,0,0.91
2013-9-26,67.2,58.7,52.1,57.6,53.8,47.9,96,84,65,27.14,26.96,0,-999,0,0.00
2013-9-27,70.1,58.4,49.4,55.4,50.3,46.9,96,76,49,27.26,27.14,0,-999,0,0.00
2013-9-28,65.4,59.4,54.6,52.8,50.8,47.8,87,74,57,27.32,27.23,0,-999,0,0.00
2013-9-29,67.3,58.0,53.0,53.0,49.3,-99.9,86,74,53,27.26,27.14,0,-999,0,0.00
2013-9-30,67.0,58.5,51.2,57.2,52.2,47.3,92,80,61,27.20,27.11,0,-999,0,0.00
2013-10-1,74.1,61.0,53.0,58.1,52.9,47.4,94,77,41,27.23,27.14,0,-999,0,0.00
2013-10-2,76.0,62.1,55.5,59.6,54.7,50.7,94,78,43,27.26,27.20,0,-999,0,0.00
2013-10-3,76.5,64.4,57.1,61.0,55.0,50.5,94,74,40,27.26,27.20,0,-999,0,0.00
2013-10-4,74.7,64.4,57.7,61.6,56.7,54.0,93,78,52,27.29,27.20,0,-999,0,0.00
2013-10-5,77.7,65.5,58.6,64.5,56.9,51.9,94,76,43,27.26,27.17,0,-999,0,0.00
2013-10-6,74.9,65.2,57.4,63.0,55.8,51.5,94,73,45,27.20,27.02,0,-999,0,0.00
2013-10-7,66.6,60.6,50.9,59.5,52.9,44.6,92,77,56,27.11,26.93,0,-999,0,0.00
2013-10-8,64.3,53.5,45.6,44.6,41.5,35.3,87,66,41,27.26,27.08,0,-999,0,0.00
2013-10-9,55.9,48.5,44.8,41.6,38.0,33.9,75,67,41,27.29,27.23,0,-999,0,0.00
2013-10-15,62.8,57.0,54.2,54.9,52.4,50.2,93,85,66,27.26,27.14,0,-999,0,0.00
2013-10-16,67.6,57.0,48.8,54.7,49.3,-99.9,96,78,53,27.17,27.05,0,-999,0,0.00
2013-10-17,65.0,58.3,55.3,60.9,51.6,-99.9,94,86,80,27.08,26.96,0,-999,0,0.08
2013-10-18,67.2,55.5,47.2,51.9,45.8,-99.9,89,73,46,27.08,26.99,0,-999,0,0.00
2013-10-19,61.3,55.2,49.5,53.5,46.8,39.7,92,75,51,27.05,26.93,0,-999,0,0.00
2013-10-20,62.9,49.2,39.9,40.2,34.5,-99.9,78,60,27,27.14,27.02,0,-999,0,0.00
2013-10-21,63.3,50.9,40.7,48.1,41.3,36.1,92,71,44,27.14,27.05,0,-999,0,0.00
2013-10-22,67.3,55.0,48.1,50.4,44.8,37.6,92,71,37,27.05,26.87,0,-999,0,0.00
2013-10-23,55.2,45.6,36.2,42.2,29.7,-99.9,82,55,36,27.05,26.81,0,-999,0,0.00
2013-10-24,53.6,41.9,34.6,28.6,23.8,18.9,58,49,37,27.14,27.02,0,-999,0,0.00
2013-10-25,48.6,37.2,29.4,26.5,19.9,17.0,62,50,31,27.29,27.14,0,-999,0,0.00
2013-10-26,55.5,38.9,26.3,28.3,22.4,18.2,74,53,26,27.26,27.05,0,-999,0,0.00
2013-10-27,65.1,52.2,43.0,40.5,35.0,28.3,75,53,35,27.14,27.02,0,-999,0,0.00
2013-10-28,61.1,52.8,47.5,51.6,46.4,40.4,91,79,54,27.29,27.14,0,-999,0,0.04
2013-10-29,65.9,54.2,46.7,51.5,44.7,37.7,94,73,37,27.34,27.26,0,-999,0,0.00
2013-10-30,71.0,58.9,51.2,53.5,47.3,43.9,90,68,40,27.32,27.23,0,-999,0,0.00
2013-10-31,62.9,59.5,54.3,56.5,49.3,43.8,86,69,54,27.23,26.96,0,-999,0,0.05
2013-11-1,72.1,62.3,51.5,57.5,49.1,31.4,89,65,23,26.93,26.75,0,-999,0,0.12
2013-11-2,58.2,50.5,43.5,40.1,32.5,26.5,62,50,38,27.02,26.84,0,-999,0,0.00
2013-11-3,56.7,44.5,37.5,33.2,27.5,-99.9,76,53,33,27.32,27.02,0,-999,0,0.00
2013-11-4,52.4,41.8,34.7,26.7,22.7,18.1,66,48,28,27.43,27.32,0,-999,0,0.00
2013-11-5,55.1,43.5,33.4,35.2,23.5,19.3,63,47,26,27.43,27.37,0,-999,0,0.00
2013-11-6,64.1,53.9,46.3,47.9,42.4,34.6,90,67,42,27.37,27.17,0,-999,0,0.00
2013-11-7,58.8,49.3,38.0,52.6,38.0,22.0,91,67,42,27.17,27.05,0,-999,0,0.00
2013-11-8,52.5,39.7,32.6,21.8,17.6,13.8,53,42,26,27.26,27.14,0,-999,0,0.00
2013-11-9,52.9,41.0,29.9,23.9,20.3,16.1,56,44,28,27.29,27.17,0,-999,0,0.00
2013-11-10,61.3,49.9,41.7,29.8,21.9,16.0,46,34,22,27.23,27.17,0,-999,0,0.00
2013-11-11,58.9,44.2,32.7,22.7,18.4,14.7,50,37,22,27.29,27.14,0,-999,0,0.00
2013-11-12,53.4,40.0,22.7,27.3,17.7,5.9,48,40,29,27.32,27.08,0,-999,0,0.00
2013-11-13,41.1,28.3,19.9,12.3,9.4,5.8,56,43,29,27.40,27.32,0,-999,0,0.00
2013-11-14,55.4,36.6,25.4,18.3,12.2,8.4,51,37,17,27.34,27.26,0,-999,0,0.00
2013-11-15,53.0,44.4,31.7,44.5,30.6,8.8,89,61,32,27.26,27.14,0,-999,0,0.08
2013-11-16,57.0,51.0,47.4,51.4,47.3,44.3,94,87,70,27.23,27.17,0,-999,0,0.00
2013-11-17,58.9,55.8,53.9,56.4,51.9,48.2,97,87,72,27.20,26.93,0,-999,0,0.25
2013-11-18,61.4,53.8,42.6,57.0,33.6,19.1,98,50,26,27.05,26.90,0,-999,0,0.00
2013-11-19,51.7,42.3,35.1,20.6,17.2,13.8,45,36,27,27.20,27.02,0,-999,0,0.00
2013-11-20,46.0,38.2,32.3,20.4,16.9,14.4,53,42,30,27.34,27.20,0,-999,0,0.00
2013-11-21,50.3,43.7,36.6,45.1,33.9,18.9,92,69,47,27.40,27.32,0,-999,0,0.04
2013-11-22,64.6,55.3,47.1,55.8,50.9,44.9,97,86,66,27.34,27.14,0,-999,0,0.08
2013-11-23,55.0,45.5,29.9,48.6,33.4,12.3,83,63,42,27.17,27.11,0,-999,0,0.00
2013-11-24,34.1,26.1,20.0,13.2,6.0,2.6,48,39,30,27.34,27.14,0,-999,0,0.00
2013-11-25,38.2,27.3,19.5,17.0,6.5,1.9,57,39,26,27.34,27.17,0,-999,0,0.00
2013-11-26,42.6,37.5,28.7,41.7,33.9,16.6,97,87,54,27.17,26.64,0,-999,0,1.87
2013-11-27,42.3,29.4,20.9,40.8,20.5,8.2,94,67,49,27.05,26.61,0,-999,0,0.04
2013-11-28,45.3,28.5,18.8,16.8,12.4,8.0,61,50,28,27.32,27.05,0,-999,0,0.09
2013-11-29,51.4,35.0,26.4,22.0,16.5,13.0,66,46,26,27.46,27.32,0,-999,0,0.00
2013-11-30,43.1,32.5,27.1,17.4,15.2,12.8,58,47,31,27.46,27.26,0,-999,0,0.00
2013-12-1,54.4,38.3,27.4,30.9,23.2,16.1,72,55,33,27.26,26.99,0,-999,0,0.00
2013-12-2,53.3,42.1,31.9,32.8,28.5,24.8,77,60,41,26.99,26.81,0,-999,0,0.00
2013-12-3,56.0,47.8,40.7,44.8,39.1,30.0,88,73,54,26.96,26.84,0,-999,0,0.00
2013-12-4,61.3,53.1,47.9,53.0,48.1,44.9,94,84,62,27.08,26.93,0,-999,0,0.00
2013-12-5,66.7,59.6,54.1,61.1,54.5,48.9,97,84,61,27.14,27.05,0,-999,0,0.28
2013-12-6,67.5,63.7,54.1,60.9,56.0,49.3,93,77,60,27.11,27.02,0,-999,0,0.75
2013-12-7,54.0,45.9,39.3,51.4,40.0,33.6,92,80,65,27.32,27.05,0,-999,0,0.00
2013-12-8,39.2,34.1,31.8,33.9,31.7,30.3,94,91,78,27.32,27.14,0,-999,0,0.25
2013-12-9,52.3,45.8,33.0,52.3,45.4,31.3,100,98,93,27.14,27.02,0,-999,0,0.58
2013-12-10,49.4,38.7,27.3,49.4,30.7,13.0,100,73,47,27.20,26.90,0,-999,0,0.21
2013-12-11,47.3,33.4,22.9,15.4,11.5,-99.9,60,40,27,27.32,27.20,0,-999,0,0.00
2013-12-12,37.0,30.2,25.1,11.2,6.5,-1.5,49,35,22,27.29,27.20,0,-999,0,0.00
2013-12-13,47.1,32.6,22.6,15.2,10.1,4.9,48,38,24,27.23,27.14,0,-999,0,0.00
2013-12-14,41.5,36.8,34.1,40.0,27.3,15.2,94,71,41,27.17,26.75,0,-999,0,0.66
2013-12-15,41.3,34.2,28.6,40.1,26.6,19.9,97,73,56,27.02,26.72,0,-999,0,0.00
2013-12-16,50.3,36.7,27.1,24.6,21.5,18.5,76,55,30,27.08,27.02,0,-999,0,0.00
2013-12-17,56.4,42.2,31.4,27.7,21.6,13.6,67,46,25,27.08,26.90,0,-999,0,0.00
2013-12-18,43.9,33.4,27.0,14.6,7.6,-99.9,49,33,20,27.20,26.99,0,-999,0,0.00
2013-12-19,59.8,42.6,30.5,22.4,15.7,-99.9,43,34,19,27.26,27.17,0,-999,0,0.00
2013-12-20,61.7,49.1,39.5,43.6,25.1,16.6,70,40,24,27.17,27.08,0,-999,0,0.00
2013-12-21,61.8,57.9,53.0,57.6,52.0,42.9,89,81,68,27.14,27.02,0,-999,0,0.25
2013-12-22,62.5,58.2,55.0,58.2,54.4,51.6,98,88,70,27.11,26.99,0,-999,0,2.49
2013-12-23,56.2,47.8,34.1,55.3,42.2,27.0,97,82,62,27.20,27.02,0,-999,0,0.33
2013-12-24,33.9,28.0,20.6,26.8,16.5,9.3,78,59,42,27.32,27.17,0,-999,0,0.00
2013-12-25,35.6,24.9,18.1,11.2,9.0,5.2,66,50,30,27.37,27.23,0,-999,0,0.00
2013-12-26,45.9,31.8,21.7,19.8,14.2,10.0,60,47,28,27.26,27.17,0,-999,0,0.00
2013-12-27,48.3,32.9,25.3,21.3,16.8,12.9,68,51,28,27.34,27.23,0,-999,0,0.00
2013-12-28,48.8,37.1,28.3,35.1,23.2,15.4,82,58,29,27.32,27.05,0,-999,0,0.25
2013-12-29,50.2,41.2,36.8,44.1,33.9,-99.9,98,77,54,27.05,26.78,0,-999,0,0.54
2013-12-30,44.9,39.8,33.9,30.0,28.5,23.5,79,64,54,27.08,26.93,0,-999,0,0.00
2013-12-31,38.8,32.8,27.2,23.6,12.5,8.0,65,42,31,27.26,27.05,0,-999,0,0.00
2014-1-1,43.7,33.3,27.3,21.0,16.4,12.3,64,48,33,27.26,27.05,0,-999,0,0.00
2014-1-2,43.3,34.3,17.7,39.9,26.0,6.5,88,71,54,27.05,26.64,0,-999,0,0.12